Location: Chmeln�
(49.6483°N, 14.9871°E)
Time: 22:46:59
(UTC+00:00)

Cosmos 1943 Rocket - Pass Details

Date: 18 September 2020
Orbit: 814 x 842 km, 71.0° (Epoch: 31 October)

Event Time Altitude Azimuth Distance (km) Brightness Sun altitude
Exits shadow 22:35:30 20° 34° (NE) 1,862 4.3 -38.8°
Drops below altitude 10° 22:37:04 10° 32° (NNE) 2,444 5.1 -38.8°
Sets 22:39:30 0° 31° (NNE) 3,377 6.0 -38.9°
